[[{"header":{"parameterUnit":"m.s-1","parameterCategory":1,"la1":30.2991,"la2":30.254,"lo1":-89.0895,"lo2":-89.0444,"dy":0.0017,"dx":0.0017,"nx":28,"ny":28,"refTime":"2025-04-08T03:00:00:Z","depth":0,"parameterNumber":2,"parameterNumberName":"U-component_of_WINDS"},"data":[0,0,0,0,0,0,0,0,0,0,0,0,0,0,0,0,0,0,0,0,0,0,0,0,0,0,0,0,0,0,0,0,0,0,0,0,0,0,0,0,0,0,0,0,0,0,0,0,0,0,0,0,0,0,0,0,0,0,0.3301,0.3302,0,0.3434,0.3435,0.3437,0.3514,0.3514,0.3514,0.3514,0.3654,0.3657,0.3661,0,0,0,0,0,0,0,0,0,0,0,0,0,0.3118,0.3121,0.3301,0.3303,0.3304,0.3433,0.3435,0.3437,0.3514,0.3514,0.3514,0.3515,0.3653,0.3657,0.3661,0,0,0,0,0,0,0,0,0,0,0,0,0,0.3218,0.3122,0.3301,0.3358,0.3364,0.3433,0.3435,0.3438,0.3513,0.3514,0.3514,0.3515,0.3652,0.3657,0.3662,0.3685,0,0,0.3678,0.368,0,0,0,0,0,0,0,0,0.3213,0.3225,0.3348,0.3354,0.3361,0.3457,0.3422,0.3521,0.3513,0.3457,0.3514,0.3515,0.3589,0.3599,0.3623,0.3692,0.3698,0.3678,0.3681,0.3683,0.3685,0,0,0,0,0,0,0,0.3206,0.322,0.3354,0.3349,0.3358,0.3378,0.3393,0.3441,0.3519,0.3462,0.3468,0.3482,0.3592,0.3618,0.3627,0.37,0.3678,0.3682,0.3686,0.3688,0.3795,0.3795,0,0,0,0,0,0,0.3189,0.3214,0.3349,0.3358,0.3286,0.3381,0.3398,0.3426,0.3518,0.3533,0.3482,0.3485,0.3609,0.3621,0.3632,0.3666,0.3683,0.3688,0.3691,0.3795,0.3795,0.3795,0,0,0,0,0,0,0.3185,0.32,0.3344,0.3287,0.3307,0.3384,0.3415,0.3429,0.3454,0.3533,0.3548,0.3493,0.361,0.3625,0.3671,0.3672,0.369,0.3695,0.3796,0.3795,0.3795,0.3733,0,0,0,0,0,0,0.3179,0.3198,0.3207,0.3287,0.331,0.338,0.3415,0.3431,0.3462,0.3468,0.3548,0.3562,0.3611,0.3663,0.3676,0.3679,0.3699,0.3796,0.3795,0.3795,0.3736,0.3731,0.3727,0,0,0,0,0,0.3172,0.3185,0.3207,0.3223,0.3322,0.3379,0.3393,0.3448,0.3462,0.3472,0.3523,0.3559,0.3669,0.3667,0.3683,0.3687,0.3796,0.3795,0.3795,0.3738,0.3732,0.3727,0,0,0,0,0,0,0.3105,0.3196,0.3222,0.3261,0.3311,0.3392,0.3407,0.344,0.3489,0.3493,0.3561,0.3578,0.3618,0.3658,0.3653,0.3715,0.3737,0.3739,0.3688,0.3683,0.3679,0.3668,0.3704,0,0,0,0,0,0.3094,0.3131,0.321,0.3237,0.3261,0.3329,0.3356,0.3394,0.3451,0.3473,0.3527,0.3581,0.3628,0.3658,0.3705,0.3742,0.3761,0.3752,0.3748,0.3744,0.3745,0.3768,0.3766,0.3793,0.3793,0.3793,0,0,0.3073,0.3128,0.3147,0.3225,0.3269,0.3307,0.3347,0.3386,0.3416,0.3479,0.3526,0.3568,0.3633,0.3674,0.3695,0.3708,0.3742,0.3743,0.3739,0.3743,0.3767,0.3765,0.3762,0.3792,0.3792,0.3793,0,0,0.3054,0.3099,0.3126,0.3169,0.3234,0.328,0.3286,0.3362,0.3392,0.344,0.3488,0.3525,0.3604,0.3649,0.3682,0.368,0.3715,0.3693,0.367,0.3692,0.369,0.3688,0.3688,0.3687,0.3695,0.3694,0.3694,0,0.3019,0.3078,0.3136,0.3172,0.3205,0.3263,0.3292,0.3332,0.341,0.3432,0.3445,0.3546,0.3594,0.3646,0.3646,0.367,0.3681,0.3685,0.3685,0.3684,0.3684,0.3684,0.3684,0.3691,0.3692,0.3692,0.3692,0,0.3033,0.3074,0.3088,0.3161,0.3195,0.3228,0.3291,0.332,0.3355,0.3399,0.3448,0.3507,0.3568,0.3583,0.3619,0.3641,0.3647,0.3672,0.3695,0.3677,0.3679,0.3679,0.3687,0.3688,0.3689,0.369,0,0,0.2976,0.3079,0.3084,0.3118,0.3194,0.3227,0.3263,0.3321,0.3344,0.3397,0.3429,0.3494,0.3517,0.3555,0.3596,0.3614,0.3609,0.3637,0.364,0.363,0.3639,0.362,0.3619,0.3633,0.3633,0.3634,0.3634,0,0.2968,0.3033,0.3086,0.3132,0.3171,0.3226,0.3258,0.3308,0.3351,0.3391,0.3438,0.3484,0.351,0.3533,0.3554,0.3605,0.3612,0.3606,0.3665,0.3666,0.3647,0.362,0.3601,0.3598,0.3635,0.3635,0.3635,0,0.2968,0.3017,0.3066,0.3139,0.3157,0.3184,0.3242,0.3279,0.3338,0.3368,0.3409,0.3452,0.3493,0.3512,0.357,0.3565,0.3592,0.3621,0.3622,0.363,0.3649,0.3628,0.3598,0.3598,0.3637,0.3636,0.3636,0,0.2921,0.3,0.3039,0.3067,0.3153,0.317,0.3207,0.3267,0.3299,0.335,0.3371,0.3427,0.3457,0.35,0.3556,0.3565,0.3609,0.3633,0.3636,0.3634,0.3643,0.3642,0.3617,0.366,0.366,0.366,0.366,0,0.2908,0.2936,0.3019,0.3044,0.3077,0.3139,0.317,0.3212,0.3265,0.33,0.3352,0.3383,0.3456,0.3497,0.3541,0.3583,0.3597,0.3623,0.3634,0.3618,0.3615,0.3637,0.3639,0.366,0.366,0.366,0.366,0,0.2862,0.2918,0.2965,0.3043,0.3063,0.3084,0.3151,0.3178,0.3223,0.3266,0.3279,0.335,0.3401,0.3462,0.3532,0.3562,0.36,0.3618,0.358,0.3587,0.3586,0.3586,0.3576,0.3578,0.3618,0.3617,0.3617,0,0.2849,0.2872,0.2951,0.2977,0.3012,0.3054,0.3087,0.3148,0.318,0.3249,0.3268,0.3322,0.3369,0.3447,0.3506,0.356,0.358,0.3572,0.3588,0.3571,0.358,0.3578,0.3581,0.3568,0.3567,0.3567,0.3566,0,0.2821,0.2848,0.2892,0.2946,0.2983,0.3029,0.3077,0.3096,0.3167,0.3201,0.3252,0.3288,0.336,0.3413,0.3475,0.3515,0.3553,0.3561,0.3565,0.3549,0.3526,0.3538,0.3569,0.3561,0.3561,0.3562,0.3562,0.3562,0.2792,0.2815,0.2874,0.2922,0.2964,0.3008,0.3037,0.3085,0.3129,0.3191,0.3225,0.3276,0.3336,0.3422,0.3461,0.3502,0.3516,0.3521,0.3522,0.3523,0.3518,0.3518,0.3514,0.3514,0.3514,0.3514,0.3515,0,0.2767,0.2808,0.2851,0.2916,0.2954,0.2985,0.304,0.307,0.3113,0.3165,0.321,0.3269,0.3322,0.3384,0.3441,0.3462,0.3481,0.3475,0.3474,0.3483,0.3503,0.3494,0.3459,0.3459,0.3459,0.3459,0.3459,0.3459,0.2759,0.2799,0.2833,0.2896,0.2937,0.2986,0.3015,0.3056,0.3098,0.3162,0.3205,0.3245,0.3302,0.3363,0.3413,0.343,0.3449,0.3437,0.346,0.3477,0.3482,0.3486,0.3478,0.3441,0.3441,0.3437,0.3437,0.3437]},{"header":{"parameterUnit":"m.s-1","parameterCategory":1,"la1":30.2991,"la2":30.254,"lo1":-89.0895,"lo2":-89.0444,"dy":0.0017,"dx":0.0017,"nx":28,"ny":28,"refTime":"2025-04-08T03:00:00:Z","depth":0,"parameterNumber":3,"parameterNumberName":"V-component_of_WINDS"},"data":[0,0,0,0,0,0,0,0,0,0,0,0,0,0,0,0,0,0,0,0,0,0,0,0,0,0,0,0,0,0,0,0,0,0,0,0,0,0,0,0,0,0,0,0,0,0,0,0,0,0,0,0,0,0,0,0,0,0,1.1274,1.1273,0,1.1245,1.1245,1.1244,1.1209,1.1209,1.1208,1.1208,1.1175,1.1175,1.1175,0,0,0,0,0,0,0,0,0,0,0,0,0,1.1292,1.1292,1.1274,1.1273,1.1273,1.1245,1.1245,1.1244,1.1209,1.1209,1.1208,1.1207,1.1176,1.1175,1.1175,0,0,0,0,0,0,0,0,0,0,0,0,0,1.1276,1.1292,1.1274,1.1252,1.125,1.1245,1.1244,1.1244,1.1209,1.1209,1.1208,1.1207,1.1176,1.1175,1.1175,1.1188,0,0,1.1173,1.1173,0,0,0,0,0,0,0,0,1.1277,1.1275,1.1256,1.1254,1.1251,1.123,1.1239,1.1225,1.121,1.1225,1.1208,1.1207,1.1194,1.1192,1.1188,1.1186,1.1185,1.1173,1.1173,1.1172,1.1172,0,0,0,0,0,0,0,1.1278,1.1276,1.1262,1.1255,1.1253,1.1242,1.1239,1.1236,1.1214,1.1223,1.1221,1.1218,1.1193,1.1189,1.1187,1.1184,1.1173,1.1173,1.1172,1.1172,1.1185,1.1186,0,0,0,0,0,0,1.1283,1.1277,1.1263,1.1261,1.1262,1.1242,1.1239,1.1237,1.1214,1.121,1.1219,1.1216,1.119,1.1188,1.1186,1.1196,1.1172,1.1172,1.1172,1.1185,1.1185,1.1186,0,0,0,0,0,0,1.1284,1.1282,1.1264,1.1269,1.1266,1.1243,1.1242,1.1237,1.1234,1.1211,1.1206,1.1219,1.1189,1.1187,1.1186,1.1195,1.1172,1.1171,1.1184,1.1185,1.1186,1.1219,0,0,0,0,0,0,1.1284,1.1283,1.1289,1.1269,1.1265,1.1267,1.1242,1.1237,1.1233,1.123,1.121,1.1206,1.1189,1.1187,1.1186,1.1193,1.1171,1.1183,1.1184,1.1186,1.1217,1.1221,1.1224,0,0,0,0,0,1.1285,1.13,1.129,1.1288,1.1273,1.1268,1.1266,1.1246,1.1234,1.1239,1.1223,1.1207,1.1194,1.1188,1.1186,1.1193,1.1182,1.1184,1.1185,1.1215,1.122,1.1224,0,0,0,0,0,0,1.1322,1.1297,1.1285,1.1295,1.1284,1.1262,1.1268,1.1253,1.1244,1.1242,1.1217,1.1212,1.1214,1.1204,1.1197,1.1201,1.1185,1.1187,1.1209,1.1213,1.1217,1.1218,1.117,0,0,0,0,0,1.1331,1.133,1.1308,1.1318,1.1313,1.1291,1.1288,1.1274,1.1261,1.1256,1.1241,1.1228,1.122,1.1216,1.1209,1.1215,1.1208,1.1218,1.1222,1.1225,1.1226,1.1224,1.1228,1.1191,1.1191,1.1191,0,0,1.135,1.1336,1.1338,1.1325,1.1315,1.1312,1.1288,1.1287,1.1284,1.1256,1.1254,1.1242,1.1225,1.1227,1.1227,1.1218,1.1235,1.1227,1.123,1.1229,1.1226,1.123,1.1233,1.1192,1.1192,1.1192,0,0,1.1383,1.1374,1.1379,1.1369,1.1353,1.1338,1.1339,1.1319,1.1309,1.1307,1.1284,1.1279,1.1268,1.1256,1.1249,1.1271,1.1254,1.1269,1.1288,1.1287,1.129,1.1292,1.1297,1.13,1.1271,1.1271,1.1271,0,1.1408,1.1405,1.1384,1.1383,1.1376,1.135,1.1353,1.1344,1.1326,1.1321,1.1312,1.1294,1.1282,1.1278,1.1283,1.1279,1.1277,1.1272,1.1291,1.1293,1.1295,1.13,1.1302,1.1272,1.1272,1.1272,1.1272,0,1.1434,1.1432,1.1438,1.1421,1.1415,1.1416,1.1393,1.1389,1.1374,1.1359,1.1354,1.1337,1.1324,1.1322,1.1308,1.1315,1.131,1.1296,1.1279,1.1301,1.1304,1.1306,1.1275,1.1274,1.1274,1.1273,0,0,1.1492,1.146,1.1462,1.1452,1.1431,1.1428,1.1426,1.1413,1.1408,1.1396,1.1391,1.1381,1.1366,1.1358,1.1341,1.134,1.1355,1.1326,1.1325,1.133,1.1358,1.1367,1.137,1.1343,1.1344,1.1344,1.1358,0,1.1518,1.1515,1.1494,1.1496,1.1491,1.1464,1.1461,1.1447,1.1431,1.1423,1.1406,1.1397,1.1381,1.1375,1.1373,1.1354,1.136,1.1353,1.1337,1.1337,1.1341,1.1372,1.1383,1.1397,1.136,1.136,1.136,0,1.155,1.1538,1.154,1.1514,1.1511,1.151,1.1494,1.1487,1.1468,1.1457,1.1445,1.1426,1.1419,1.1404,1.1392,1.1388,1.138,1.1369,1.1369,1.1366,1.1349,1.1368,1.1402,1.1403,1.1363,1.1363,1.1363,0,1.1588,1.1572,1.157,1.1563,1.1534,1.1533,1.1521,1.1501,1.1493,1.1478,1.1472,1.1457,1.1448,1.1435,1.1411,1.1403,1.1401,1.1384,1.1389,1.1389,1.139,1.139,1.1421,1.1387,1.1387,1.1387,1.1387,0,1.1619,1.162,1.1586,1.1584,1.1583,1.1558,1.1556,1.1541,1.1523,1.1516,1.1492,1.1485,1.1455,1.1444,1.1425,1.1416,1.1413,1.1402,1.1396,1.1403,1.1404,1.1397,1.1395,1.1388,1.1388,1.1387,1.1387,0,1.1661,1.1639,1.1633,1.1606,1.1599,1.1599,1.1574,1.157,1.1552,1.1543,1.1539,1.1511,1.1496,1.1471,1.145,1.1436,1.1431,1.1423,1.1437,1.1434,1.1439,1.1438,1.1466,1.1467,1.1434,1.1434,1.1435,0,1.1682,1.1681,1.1653,1.1647,1.1635,1.1626,1.1617,1.159,1.1581,1.1557,1.1555,1.1539,1.1524,1.1502,1.1478,1.146,1.145,1.1461,1.1447,1.1453,1.1447,1.1447,1.1446,1.1464,1.1464,1.1465,1.1465,0,1.1719,1.1707,1.1696,1.168,1.167,1.1655,1.164,1.1635,1.1605,1.1596,1.158,1.1569,1.1545,1.1528,1.1506,1.1491,1.1472,1.1469,1.1469,1.1475,1.1483,1.1476,1.1444,1.1469,1.1468,1.1468,1.1468,1.1468,1.1749,1.1746,1.1725,1.1712,1.1697,1.1682,1.1676,1.1656,1.1644,1.1623,1.1608,1.1593,1.1569,1.1538,1.1524,1.151,1.1501,1.1502,1.1501,1.1502,1.1503,1.1486,1.1506,1.1506,1.1506,1.1506,1.1505,0,1.1784,1.1768,1.1756,1.1734,1.1723,1.1706,1.1687,1.1678,1.1666,1.1646,1.1632,1.1612,1.1594,1.1568,1.1547,1.1541,1.1531,1.1536,1.1536,1.1532,1.1513,1.1514,1.1544,1.1544,1.1544,1.1544,1.1544,1.1544,1.18,1.1793,1.1778,1.1762,1.1746,1.1731,1.1721,1.1706,1.169,1.167,1.1655,1.1638,1.1614,1.1591,1.1573,1.1566,1.1558,1.1566,1.1555,1.1538,1.1534,1.1531,1.1532,1.1565,1.1565,1.1575,1.1575,1.1575]}]]